SCP
2 2 3 4 5 5 6 6 6 5 4 3 3 3 4 4 4 4 4 3 3 4 5 6 6 5 5 4 3 3 2 2 2 2 2 1 1 1 1 1 1 1 1
2 2 3 5 6 6 7 7 7 6 5 4 3 3 4 4 5 4 4 4 4 4 5 5 5 4 4 3 3 3 3 2 3 3 2 2 1 1 1 1 1 1 1
3 3 3 5 5 5 6 6 7 6 5 4 3 3 4 4 5 4 4 4 4 4 4 4 3 3 3 3 3 4 4 3 3 4 3 2 2 2 2 1 1 1 1
4 3 4 5 5 4 4 5 5 6 5 5 4 3 4 4 4 4 4 3 3 3 3 3 3 3 3 3 3 4 4 4 4 4 4 3 3 3 3 2 2 2 2
4 4 4 5 6 5 5 5 5 5 5 5 4 4 4 4 4 4 3 3 2 3 3 3 3 4 4 3 4 4 4 4 4 5 5 4 4 4 4 3 3 3 2
3 3 4 4 5 6 5 5 5 6 5 5 4 4 4 4 4 4 3 2 2 2 2 3 3 4 4 4 4 4 5 5 5 5 5 4 4 4 4 4 3 3 3
2 2 3 4 5 5 5 6 6 6 5 5 4 4 4 3 3 3 3 3 2 2 2 3 3 4 4 5 5 5 5 5 6 6 5 5 4 4 4 4 4 3 3
2 2 3 3 4 5 6 7 7 7 5 4 4 4 4 3 3 3 3 2 2 2 2 3 3 3 4 5 5 5 5 5 5 5 5 4 3 4 5 5 5 4 3
2 2 3 4 5 6 7 7 7 7 6 5 4 4 4 4 3 3 2 2 2 2 3 3 3 3 3 4 5 5 5 6 5 4 4 3 3 4 5 6 6 4 3
2 3 4 5 6 7 7 7 7 7 7 5 4 4 4 4 4 4 3 2 3 3 3 3 3 3 3 4 5 6 6 5 5 4 4 4 4 4 5 5 6 5 3
2 4 5 6 5 6 6 8 9 9 8 7 5 4 4 4 5 4 3 3 4 4 4 4 3 4 4 5 6 6 5 4 3 3 4 5 5 5 5 4 5 5 4
3 4 5 5 4 4 5 7 7 7 7 6 5 4 4 4 5 4 4 4 5 5 5 5 4 4 5 6 5 4 3 3 3 3 4 5 6 5 4 4 4 5 5
3 3 3 4 4 4 4 4 4 4 4 4 4 4 4 4 5 5 4 4 5 6 6 6 6 5 5 5 4 3 2 2 2 2 3 4 3 3 3 3 4 4 4
4 4 4 4 4 4 3 3 2 2 2 2 3 3 4 5 5 5 5 5 5 6 7 7 6 5 4 4 3 3 2 2 2 2 2 1 1 1 2 3 3 4 4
4 4 4 4 4 3 3 2 2 2 2 2 2 3 4 5 5 5 5 5 6 6 7 6 5 4 3 3 3 2 2 2 1 1 1 1 1 1 1 2 2 3 4
3 3 3 3 3 3 2 2 2 2 2 2 2 2 3 4 4 4 5 5 5 5 5 4 4 3 2 2 1 1 1 1 1 1 1 0 0 0 0 1 1 2 3
2 2 2 3 3 3 3 2 2 2 2 2 2 2 2 3 3 4 4 4 3 3 3 3 3 2 2 1 0 1 1 1 1 1 1 1 1 1 1 1 1 1 2
1 1 2 2 3 4 3 3 3 2 2 2 2 2 2 2 3 3 3 3 3 3 3 3 3 2 1 1 0 0 1 1 1 1 1 1 1 1 1 1 2 3 3
2 2 2 2 3 4 4 4 4 3 3 2 2 2 2 3 3 3 3 3 3 2 2 2 2 2 1 0 0 0 1 1 1 1 1 1 1 1 1 2 3 4 4
2 2 2 2 3 4 4 4 4 3 3 3 3 3 3 3 3 3 3 3 2 2 2 2 2 1 1 0 0 0 0 1 1 1 1 1 1 1 1 2 3 4 4
2 2 2 2 2 2 3 3 3 2 2 2 2 2 3 3 3 3 3 3 2 2 2 2 2 1 1 1 0 0 0 1 1 1 1 1 0 0 0 1 2 3 3
2 2 2 2 2 2 2 2 2 1 1 1 2 2 2 3 3 3 3 3 2 2 2 2 2 1 1 1 0 0 0 0 1 1 1 0 0 0 0 0 1 1 1
2 2 2 2 2 1 1 1 1 1 1 1 2 2 3 3 3 3 3 2 2 2 2 1 1 1 1 1 0 0 0 0 0 0 0 0 0 0 0 0 0 0 0
2 2 2 2 2 1 1 1 1 1 1 1 1 2 2 3 3 2 2 2 2 2 2 1 1 1 1 1 1 0 0 0 0 0 0 0 0 0 0 0 0 0 1
2 2 2 2 2 2 1 1 1 1 0 1 1 1 2 2 2 2 2 2 2 1 1 1 1 1 1 1 0 0 0 0 0 0 0 0 1 1 1 1 1 1 1
2 2 2 2 2 2 1 1 1 1 0 1 1 1 1 2 2 2 2 1 1 1 1 1 1 1 1 0 0 0 0 0 0 0 0 1 1 1 1 1 1 1 1
Wind_Speed
6 6 6 6 6 6 6 6 6 5 5 4 4 3 3 2 2 1 1 1 2 2 2 2 0 1 1 1 1 2 2 2 1 2 2 2 3 2 1 2 2 2 2
6 6 6 6 6 6 6 6 6 6 6 4 3 2 2 2 2 1 1 1 1 1 1 1 1 1 1 1 2 2 2 2 2 2 2 2 3 3 3 2 2 2 1
5 6 7 7 6 6 6 5 5 5 5 4 4 3 3 2 2 2 1 1 1 1 2 2 2 1 2 1 2 3 4 3 3 3 3 3 2 1 2 2 2 1 1
5 6 7 6 6 6 5 5 5 5 4 5 4 4 3 2 2 1 1 1 1 1 1 1 2 2 2 1 3 2 3 4 4 3 3 3 3 3 1 2 2 3 2
4 5 5 5 5 5 5 5 5 4 4 4 4 4 3 2 2 2 2 2 1 1 1 1 2 2 3 2 3 3 4 4 5 4 3 3 3 5 4 3 2 2 2
4 4 4 4 4 5 5 6 5 4 4 4 3 3 3 2 2 2 2 2 1 1 1 2 2 3 3 3 3 3 4 4 5 5 4 4 4 4 4 4 4 2 2
5 5 5 5 5 5 5 5 6 4 4 4 3 3 2 2 2 2 2 2 1 1 1 2 3 3 3 3 3 3 4 4 4 4 4 4 4 4 4 4 4 3 2
5 5 5 5 5 5 5 5 5 4 4 3 3 2 2 1 1 1 1 1 1 1 1 2 3 3 4 3 3 3 3 3 4 4 4 4 4 4 3 3 4 4 3
5 5 5 5 4 5 4 4 5 5 4 3 3 3 2 1 1 1 1 1 1 1 1 2 2 3 3 3 3 2 3 3 4 4 4 5 4 3 3 4 4 4 4
6 5 5 4 4 4 4 4 5 4 4 4 3 2 2 2 2 1 1 0 1 1 1 2 2 3 3 3 3 3 3 4 4 4 4 5 4 3 3 4 4 4 5
6 6 5 4 4 4 4 4 4 5 4 4 3 3 2 2 2 1 1 1 1 1 1 1 2 2 3 3 3 4 4 4 4 4 4 5 5 4 4 4 4 4 3
5 5 5 4 4 4 3 3 4 4 4 4 4 3 3 2 2 2 1 1 1 1 1 2 2 3 3 3 3 4 4 4 4 4 4 5 4 5 4 3 4 3 3
5 5 4 4 3 3 3 3 3 4 4 5 5 4 3 2 1 1 1 1 1 1 1 2 2 3 3 3 4 4 4 4 4 4 4 4 4 5 4 4 4 3 3
5 4 4 4 3 3 3 3 3 4 4 4 4 4 3 2 1 1 0 1 1 1 1 2 2 3 4 4 4 4 4 4 4 3 4 4 5 5 4 4 4 4 4
5 4 4 4 3 3 3 3 3 3 4 4 3 3 3 2 1 0 0 1 1 1 1 2 2 3 3 3 4 4 4 4 4 3 4 4 4 4 4 4 4 5 4
5 5 4 3 4 4 4 3 3 3 4 4 4 3 3 2 1 1 1 0 1 1 1 2 2 3 3 4 5 6 4 4 4 4 3 3 3 3 4 5 5 5 6
4 4 4 4 4 4 4 4 4 4 4 4 4 4 3 2 2 2 1 0 1 1 2 2 2 2 3 3 4 5 5 4 3 3 3 3 2 4 4 4 6 6 6
4 4 3 3 3 4 4 4 4 4 4 4 4 4 4 3 3 2 1 1 1 1 2 2 2 3 2 2 3 6 4 3 3 3 3 3 4 3 4 4 4 4 4
3 3 3 3 3 4 4 4 4 4 4 4 3 3 3 3 3 2 1 1 1 2 2 2 2 2 2 1 3 5 3 2 2 3 3 3 3 2 3 4 4 4 4
2 2 2 2 3 4 4 4 4 4 4 4 3 3 3 3 3 2 2 2 2 2 3 1 2 2 2 1 2 5 3 2 2 2 2 1 2 3 3 4 4 4 3
2 2 3 2 3 3 4 4 4 4 3 3 3 3 3 3 3 3 2 3 3 2 2 2 2 2 2 1 1 3 3 3 3 3 2 1 1 2 3 4 3 4 5
2 3 3 2 3 4 4 4 4 3 3 3 3 4 3 3 3 3 3 3 3 3 3 3 3 2 2 1 1 2 3 5 4 3 3 2 1 2 3 3 2 4 6
2 2 3 3 3 4 4 4 3 3 4 4 4 3 4 4 3 4 4 4 4 3 3 3 3 2 1 2 4 4 4 4 4 2 2 2 2 3 3 2 4 5 4
3 3 3 3 3 4 4 4 3 4 4 4 4 4 4 4 4 4 4 3 3 3 3 3 3 2 1 1 1 1 2 4 4 2 2 4 5 4 2 2 3 3 3
3 3 4 4 4 4 4 4 4 4 4 4 4 4 4 4 4 4 2 3 2 2 4 3 3 3 2 1 3 4 3 3 2 3 3 2 1 2 1 2 2 2 2
3 3 4 4 4 4 4 4 4 4 4 4 4 4 4 4 4 4 3 1 2 2 3 4 5 3 2 1 2 2 3 4 4 4 3 2 2 2 2 2 2 2 2
Wind_Direction
195 183 182 180 179 178 180 184 191 186 193 194 203 201 199 206 207 203 172 236 274 271 272 296 202 259 251 271 263 243 211 220 221 249 234 213 208 215 226 233 245 221 213
191 182 180 179 180 179 181 182 186 185 197 192 203 210 219 217 199 191 140 223 263 282 258 291 276 256 257 230 255 244 249 237 215 257 259 240 201 191 203 212 209 225 218
200 188 186 186 184 183 184 182 183 183 191 193 195 187 188 204 181 183 170 181 217 260 310 299 288 260 256 239 249 248 248 254 233 237 269 275 277 273 174 198 208 217 236
203 195 188 188 188 185 175 172 176 179 183 192 198 198 198 205 206 207 173 182 186 224 264 284 272 265 270 265 252 243 260 257 252 232 241 272 310 278 232 198 195 206 223
196 191 186 184 183 177 166 160 164 169 173 191 191 206 216 219 190 181 167 217 184 208 253 261 267 259 263 268 271 264 259 258 262 258 246 241 240 246 259 252 234 216 220
170 165 162 158 164 163 158 154 158 161 167 176 181 201 212 218 201 198 186 211 196 200 228 257 263 258 266 266 261 258 255 262 270 273 265 253 248 242 244 249 249 250 245
158 158 155 153 156 160 159 157 154 156 160 164 167 178 197 206 207 227 205 237 223 217 221 261 264 263 262 264 264 254 263 257 259 263 269 265 258 263 262 260 266 268 261
158 155 152 154 157 156 160 158 154 157 155 155 158 163 181 211 199 210 272 245 269 278 272 263 268 268 266 266 263 261 256 255 255 261 267 263 257 257 255 258 267 264 258
162 156 150 153 155 153 152 154 154 155 157 155 155 154 143 139 155 168 234 277 313 286 270 271 275 272 270 270 264 263 264 263 256 256 252 256 255 254 253 254 261 262 262
160 152 150 147 147 147 147 153 158 159 158 156 158 140 142 152 163 167 112 29 315 305 279 277 278 279 277 268 265 261 259 253 252 254 255 253 250 247 246 246 253 258 264
165 154 149 145 144 149 154 156 158 161 160 152 145 141 144 153 165 165 159 165 262 260 261 280 283 281 279 276 274 276 276 269 262 256 249 250 254 252 246 242 246 249 251
164 153 151 150 152 154 157 160 167 168 167 160 154 149 149 148 164 166 177 179 216 264 294 289 286 285 285 283 278 282 282 277 272 263 257 255 249 248 252 249 242 243 243
164 161 160 162 163 161 164 163 172 171 170 164 159 152 151 151 166 177 198 240 256 285 290 290 290 293 294 287 284 283 279 278 277 277 271 267 260 252 245 244 241 240 241
174 176 176 176 173 173 173 175 170 168 164 163 157 148 152 165 179 198 219 256 268 267 285 294 302 302 296 290 288 281 281 281 277 277 276 276 268 254 246 240 240 242 245
186 191 197 189 182 176 180 185 180 170 166 166 163 156 159 169 163 159 238 283 277 272 284 296 304 305 298 320 319 296 281 277 276 275 273 274 271 267 259 256 242 239 242
209 207 208 204 199 192 189 185 189 177 173 175 172 166 163 168 168 182 204 245 306 313 312 318 315 315 336 9 340 308 291 280 280 283 279 268 250 249 239 249 254 256 249
221 221 222 218 211 199 196 193 182 179 182 184 186 176 173 175 183 204 204 246 304 304 302 310 316 319 0 5 326 306 292 281 289 295 288 280 273 256 253 227 224 238 246
233 231 229 220 204 196 197 194 185 185 188 194 196 186 183 182 185 197 211 250 282 298 301 309 313 315 354 2 316 304 280 289 297 301 299 291 291 289 280 262 247 243 240
238 232 227 214 198 197 193 188 192 194 191 193 196 194 191 185 188 196 215 248 269 276 281 288 301 302 331 356 307 297 282 292 302 305 307 301 298 338 297 267 259 258 253
227 212 208 203 195 193 192 193 195 201 202 199 198 198 200 199 198 201 216 230 251 258 267 278 296 297 306 345 295 290 280 295 294 287 282 8 320 315 289 261 259 258 264
200 190 193 199 193 184 189 201 201 212 215 209 201 198 204 212 211 207 214 231 244 254 269 276 273 280 294 216 226 288 292 303 299 302 305 9 51 292 282 276 271 272 271
193 191 194 198 192 183 192 207 210 217 216 212 208 205 210 221 202 206 219 228 241 235 234 241 254 248 225 251 206 230 272 298 293 300 316 7 26 297 275 272 285 281 274
201 197 198 202 197 192 204 214 217 216 209 211 212 212 211 216 214 217 218 223 229 242 248 248 250 252 233 179 188 206 230 258 272 306 346 319 266 258 239 226 249 259 262
214 212 209 213 206 203 209 216 211 211 208 210 213 213 213 213 212 228 228 233 239 241 244 257 266 266 249 273 259 225 211 217 235 264 240 227 234 243 262 237 237 256 270
221 220 223 226 220 208 207 208 204 206 211 212 216 218 215 217 222 225 245 256 262 297 282 281 279 286 285 5 354 310 306 308 315 294 259 252 247 251 247 248 249 252 252
227 228 229 229 221 206 202 202 203 206 209 212 216 219 218 215 222 217 210 205 244 217 246 274 285 284 290 220 243 270 285 285 279 271 262 262 266 277 283 275 267 257 260